Meteo pe oră la Dzialoszyn

Astăzi, 3 Martie, Miercuri

Timp Temperatura Precipitaţii Vânt Presiune Umiditate
00:00 +4°C° 0 mm 2 m/s 746 mmHg 72%
01:00 +4°C° 0 mm 2 m/s 746 mmHg 71%
02:00 +4°C° 0 mm 2 m/s 746 mmHg 71%
03:00 +4°C° 0 mm 2 m/s 745 mmHg 71%
04:00 +3°C° 0 mm 2 m/s 745 mmHg 71%
05:00 +3°C° 0 mm 2 m/s 745 mmHg 72%
06:00 +3°C° 0 mm 2 m/s 745 mmHg 74%
07:00 +3°C° 0 mm 2 m/s 745 mmHg 75%
08:00 +4°C° 0 mm 2 m/s 744 mmHg 71%
09:00 +6°C° 0 mm 2 m/s 744 mmHg 66%
10:00 +8°C° 0 mm 3 m/s 744 mmHg 62%
11:00 +9°C° 0 mm 3 m/s 744 mmHg 59%
12:00 +10°C° 0 mm 3 m/s 743 mmHg 57%
13:00 +11°C° 0 mm 3 m/s 743 mmHg 54%
14:00 +11°C° 0 mm 3 m/s 742 mmHg 56%
15:00 +11°C° 0 mm 3 m/s 742 mmHg 57%
16:00 +11°C° 0 mm 3 m/s 741 mmHg 58%
17:00 +9°C° 0 mm 3 m/s 741 mmHg 64%
18:00 +8°C° 0 mm 2 m/s 741 mmHg 69%
19:00 +7°C° 0 mm 2 m/s 740 mmHg 75%
20:00 +6°C° 0 mm 2 m/s 740 mmHg 75%
21:00 +6°C° 0 mm 2 m/s 739 mmHg 75%
22:00 +6°C° 0 mm 2 m/s 739 mmHg 76%
23:00 +6°C° 0 mm 2 m/s 739 mmHg 77%

Mâine, 4 Martie, Joi

Timp Temperatura Precipitaţii Vânt Presiune Umiditate
00:00 +6°C° 0 mm 2 m/s 739 mmHg 78%
01:00 +4°C° 0 mm 3 m/s 738 mmHg 79%
02:00 +4°C° 0 mm 3 m/s 738 mmHg 82%
03:00 +5°C° 0 mm 2 m/s 737 mmHg 85%
04:00 +5°C° 0 mm 2 m/s 736 mmHg 87%
05:00 +5°C° 0 mm 2 m/s 736 mmHg 89%
06:00 +4°C° 0 mm 2 m/s 736 mmHg 90%
07:00 +4°C° 0 mm 2 m/s 736 mmHg 91%
08:00 +5°C° 0 mm 3 m/s 736 mmHg 87%
09:00 +7°C° 0 mm 3 m/s 736 mmHg 83%
10:00 +9°C° 0 mm 3 m/s 736 mmHg 78%
11:00 +8°C° 0 mm 4 m/s 735 mmHg 75%
12:00 +10°C° 0 mm 4 m/s 735 mmHg 71%
13:00 +10°C° 0 mm 4 m/s 735 mmHg 68%
14:00 +8°C° 0.3 mm 4 m/s 734 mmHg 75%
15:00 +8°C° 0.3 mm 3 m/s 733 mmHg 82%
16:00 +7°C° 0.3 mm 3 m/s 733 mmHg 89%
17:00 +7°C° 0.2 mm 3 m/s 733 mmHg 90%
18:00 +6°C° 0.2 mm 2 m/s 733 mmHg 90%
19:00 +6°C° 0.2 mm 2 m/s 733 mmHg 90%
20:00 +5°C° 0.5 mm 2 m/s 733 mmHg 91%
21:00 +3°C° 0.5 mm 3 m/s 733 mmHg 91%
22:00 +2°C° 0.5 mm 3 m/s 733 mmHg 92%
23:00 +2°C° 0.1 mm 3 m/s 733 mmHg 92%

Poimâine, 5 Martie, Vineri

Timp Temperatura Precipitaţii Vânt Presiune Umiditate
00:00 +2°C° 0.1 mm 2 m/s 734 mmHg 93%
01:00 +2°C° 0.1 mm 2 m/s 734 mmHg 93%
02:00 +1°C° 0.2 mm 3 m/s 734 mmHg 94%
03:00 0°C° 0.2 mm 3 m/s 734 mmHg 95%
04:00 -1°C° 0.2 mm 4 m/s 735 mmHg 96%
05:00 -2°C° 0.3 mm 4 m/s 735 mmHg 95%
06:00 -2°C° 0.3 mm 4 m/s 736 mmHg 94%
07:00 -3°C° 0.3 mm 4 m/s 736 mmHg 93%
08:00 -3°C° 0.1 mm 4 m/s 737 mmHg 88%
09:00 -2°C° 0.1 mm 4 m/s 737 mmHg 82%
10:00 -2°C° 0.1 mm 4 m/s 738 mmHg 77%
11:00 -1°C° 0 mm 4 m/s 738 mmHg 71%
12:00 -1°C° 0 mm 4 m/s 739 mmHg 64%
13:00 0°C° 0 mm 4 m/s 739 mmHg 57%
14:00 0°C° 0 mm 4 m/s 739 mmHg 56%
15:00 0°C° 0 mm 4 m/s 739 mmHg 55%
16:00 0°C° 0 mm 4 m/s 739 mmHg 54%
17:00 0°C° 0 mm 3 m/s 740 mmHg 59%
18:00 -1°C° 0 mm 2 m/s 741 mmHg 63%
19:00 -2°C° 0 mm 2 m/s 741 mmHg 68%
20:00 -2°C° 0 mm 2 m/s 742 mmHg 69%
21:00 -3°C° 0 mm 2 m/s 742 mmHg 71%
22:00 -3°C° 0 mm 2 m/s 743 mmHg 73%
23:00 -3°C° 0 mm 2 m/s 743 mmHg 73%

6 Martie, Sâmbătă

Timp Temperatura Precipitaţii Vânt Presiune Umiditate
00:00 -2°C° 0 mm 1 m/s 744 mmHg 73%
01:00 -2°C° 0 mm 1 m/s 744 mmHg 74%
02:00 -2°C° 0 mm 1 m/s 744 mmHg 75%
03:00 -2°C° 0 mm 1 m/s 744 mmHg 76%
04:00 -2°C° 0 mm 1 m/s 745 mmHg 77%
05:00 -2°C° 0 mm 1 m/s 745 mmHg 77%
06:00 -2°C° 0 mm 1 m/s 745 mmHg 78%
07:00 -2°C° 0 mm 1 m/s 746 mmHg 78%
08:00 -1°C° 0 mm 1 m/s 746 mmHg 70%
09:00 0°C° 0 mm 1 m/s 746 mmHg 61%
10:00 +1°C° 0 mm 1 m/s 747 mmHg 52%
11:00 +2°C° 0 mm 1 m/s 747 mmHg 48%
12:00 +3°C° 0 mm 1 m/s 747 mmHg 43%
13:00 +4°C° 0 mm 1 m/s 746 mmHg 39%
14:00 +2°C° 0 mm 2 m/s 746 mmHg 40%
15:00 +2°C° 0 mm 2 m/s 746 mmHg 40%
16:00 +2°C° 0 mm 2 m/s 745 mmHg 41%
17:00 +1°C° 0 mm 2 m/s 745 mmHg 47%
18:00 +1°C° 0 mm 1 m/s 745 mmHg 53%
19:00 0°C° 0 mm 1 m/s 745 mmHg 58%
20:00 -1°C° 0 mm 1 m/s 745 mmHg 59%
21:00 -1°C° 0 mm 1 m/s 745 mmHg 60%
22:00 -3°C° 0 mm 2 m/s 744 mmHg 60%
23:00 -3°C° 0 mm 2 m/s 744 mmHg 61%

7 Martie, Duminică

Timp Temperatura Precipitaţii Vânt Presiune Umiditate
00:00 -3°C° 0 mm 2 m/s 744 mmHg 61%
01:00 -3°C° 0 mm 2 m/s 744 mmHg 61%
02:00 -3°C° 0 mm 2 m/s 743 mmHg 61%
03:00 -3°C° 0 mm 2 m/s 743 mmHg 60%
04:00 -3°C° 0 mm 2 m/s 742 mmHg 60%
05:00 -3°C° 0 mm 2 m/s 742 mmHg 59%
06:00 -3°C° 0 mm 2 m/s 742 mmHg 59%
07:00 -3°C° 0 mm 2 m/s 741 mmHg 59%
08:00 -2°C° 0 mm 3 m/s 741 mmHg 54%
09:00 0°C° 0 mm 3 m/s 741 mmHg 49%
10:00 +2°C° 0 mm 3 m/s 741 mmHg 44%
11:00 +2°C° 0 mm 3 m/s 741 mmHg 43%
12:00 +3°C° 0 mm 3 m/s 740 mmHg 42%
13:00 +4°C° 0 mm 3 m/s 740 mmHg 41%
14:00 +4°C° 0 mm 3 m/s 739 mmHg 42%
15:00 +4°C° 0 mm 3 m/s 738 mmHg 44%
16:00 +4°C° 0 mm 3 m/s 738 mmHg 46%
17:00 +3°C° 0 mm 2 m/s 737 mmHg 53%
18:00 +1°C° 0 mm 2 m/s 737 mmHg 60%
19:00 0°C° 0 mm 1 m/s 737 mmHg 67%
20:00 0°C° 0 mm 1 m/s 737 mmHg 67%
21:00 0°C° 0 mm 1 m/s 737 mmHg 68%
22:00 0°C° 0 mm 1 m/s 737 mmHg 68%
23:00 0°C° 0 mm 1 m/s 736 mmHg 69%

8 Martie, Luni

Timp Temperatura Precipitaţii Vânt Presiune Umiditate
00:00 0°C° 0 mm 1 m/s 736 mmHg 69%
01:00 0°C° 0 mm 1 m/s 736 mmHg 70%
02:00 -1°C° 0 mm 1 m/s 736 mmHg 72%
03:00 -1°C° 0 mm 1 m/s 735 mmHg 74%
04:00 -1°C° 0 mm 1 m/s 735 mmHg 76%
05:00 -1°C° 0 mm 1 m/s 735 mmHg 77%
06:00 -1°C° 0 mm 1 m/s 735 mmHg 79%
07:00 -1°C° 0 mm 1 m/s 735 mmHg 80%
08:00 -2°C° 0 mm 2 m/s 735 mmHg 78%
09:00 -1°C° 0 mm 2 m/s 735 mmHg 75%
10:00 +1°C° 0 mm 2 m/s 736 mmHg 72%
11:00 +2°C° 0 mm 2 m/s 736 mmHg 71%
12:00 +2°C° 0 mm 2 m/s 736 mmHg 71%
13:00 +3°C° 0 mm 2 m/s 736 mmHg 70%
14:00 +2°C° 0.1 mm 2 m/s 736 mmHg 74%
15:00 +2°C° 0.1 mm 2 m/s 736 mmHg 77%
16:00 +2°C° 0.1 mm 2 m/s 736 mmHg 81%
17:00 +1°C° 0.1 mm 2 m/s 736 mmHg 86%
18:00 +1°C° 0.1 mm 2 m/s 736 mmHg 91%
19:00 -1°C° 0.1 mm 2 m/s 737 mmHg 96%
20:00 -1°C° 0.1 mm 2 m/s 737 mmHg 95%
21:00 -2°C° 0.1 mm 2 m/s 737 mmHg 93%
22:00 -2°C° 0.1 mm 3 m/s 738 mmHg 91%
23:00 -4°C° 0 mm 3 m/s 738 mmHg 89%
Arată mai mult

Formular de consimțământ

Meteoprog și furnizorii noștri de servicii pot stoca și accesa date personale, precum cookies, identificatori de dispozitiv sau alte tehnologii similare pe dispozitivul dumneavoastră și procesa astfel de date pentru a personaliza conținutul și reclamele, dar și pentru a oferi caracteristici de social media și pentru a analiza traficul.

  • Stocarea și/sau accesarea informațiilor pe dispozitivul dumneavoastră

    Cookies, identificatori de dispozitiv sau alte informații pot fi stocate sau accesate pe dispozitiv în scopurile indicate mai sus.

  • Reclame și conținut personalizat, evaluarea reclamelor și a conținutului, informații despre audiențe și dezvoltarea produselor

    Reclamele și conținutul pot fi personalizate pe baza unui profil. Pot fi adăugate date suplimentare pentru a personaliza mai bine reclamele și conținutul. Performanța reclamelor și conținutului poate fi măsurată. Pot fi obținute informații despre utilizatorii care au văzut reclamele și conținutul. Aceste date pot fi utilizate pentru a dezvolta sau îmbunătăți experiența utilizatorilor, sistemele și software-ul.

Dând clic pe ‘Sunt de acord’, permiteți utilizarea cookie-urilor menționate, a identificatorilor de dispozitiv, balizelor web sau altor tehnologii similare. Setările pot fi modificate din browser-ul dispozitivului dumneavoastră.

În anumite scopuri, interesele legitime pot prima asupra consimțământului. Puteți citi mai multe informații în acest sens în Politica privind Confidențialitatea Datelor și Cookie.